Theta_e
319 319 319 320 321 322 322 322 323 323 323 324 324 324 324 324 317 317 317 314 313 313 314 316 317 317 320 330 327 328 321 319 320 332 328 328 328 329 331 333 334 333 332 330 329 329 329
319 319 321 322 322 323 323 324 324 324 324 324 324 324 324 323 320 318 317 314 314 313 313 315 316 313 330 327 327 331 327 325 328 327 328 327 327 329 333 334 332 331 329 328 329 329 329
321 321 322 322 323 323 324 323 323 324 324 324 323 323 324 323 322 318 317 314 315 313 312 312 312 322 329 325 329 328 329 330 329 327 328 326 328 333 335 332 331 328 329 329 329 329 330
320 321 322 323 323 323 321 317 317 317 318 319 321 322 323 322 322 318 317 317 316 314 314 315 316 327 326 325 329 327 327 327 327 328 328 328 334 336 333 330 330 330 330 331 330 329 329
317 318 319 319 318 311 308 307 310 312 312 312 315 318 321 321 322 316 317 318 318 317 316 320 329 334 326 323 328 327 326 329 328 329 328 328 329 331 330 330 332 330 332 331 330 329 329
312 310 307 305 305 304 303 302 303 305 308 308 309 313 318 320 321 316 318 317 321 317 324 327 329 333 328 328 325 327 326 328 329 330 329 329 330 330 330 331 332 332 330 330 330 330 329
307 306 305 303 303 302 302 302 302 303 303 305 306 308 314 319 320 317 320 324 329 330 325 328 329 331 328 327 324 325 327 328 326 328 329 329 329 331 331 330 329 329 329 330 330 329 329
302 301 301 301 301 301 302 302 303 303 303 304 305 306 310 317 320 320 322 325 323 323 329 326 325 326 326 325 326 326 326 328 327 328 327 327 329 330 328 328 328 329 330 332 331 330 329
305 304 303 303 303 303 303 303 303 303 303 304 305 306 308 316 321 323 323 321 322 323 329 326 325 327 326 325 327 325 327 327 327 328 327 330 331 328 328 329 330 331 331 332 331 331 330
307 306 305 304 302 302 303 303 303 304 304 305 305 306 307 316 324 323 325 322 324 323 332 327 326 326 325 326 326 327 326 327 327 329 327 329 329 328 329 330 329 332 330 329 329 330 332
308 307 306 305 303 301 301 301 302 302 303 305 306 306 308 319 323 326 322 323 323 324 338 328 326 325 326 326 327 326 326 327 328 327 327 330 328 328 329 330 328 330 329 329 329 331 331
307 307 307 306 305 302 300 301 301 302 302 304 305 306 309 325 326 324 324 324 324 331 334 328 326 325 326 326 326 326 326 326 328 327 327 328 328 328 329 328 328 328 330 331 332 332 333
306 306 306 306 305 304 302 300 301 301 302 303 305 307 314 321 328 324 325 327 333 332 331 328 327 327 327 327 327 326 326 327 327 328 330 329 328 328 328 329 329 330 331 333 334 334 335
305 305 306 305 305 304 303 300 300 301 302 303 305 309 321 322 324 324 326 330 333 332 331 328 328 328 328 328 328 328 328 328 328 329 329 331 332 330 329 329 331 330 331 332 336 332 331
305 305 305 304 304 305 304 302 300 301 302 303 306 318 321 325 324 324 328 330 330 331 329 328 328 328 328 329 329 329 328 329 330 329 330 333 332 330 328 328 329 332 333 331 329 330 331
304 304 304 304 304 304 305 303 300 301 302 308 316 319 320 324 324 325 326 326 329 329 327 328 329 329 330 330 329 329 330 329 329 328 329 331 333 331 329 328 329 331 331 330 333 335 335
303 304 303 304 304 304 304 304 302 303 302 311 320 321 325 323 323 325 326 326 326 327 327 327 328 329 329 331 330 331 331 330 329 329 329 330 333 332 331 331 331 333 332 332 331 330 333
303 303 303 303 303 303 304 304 303 306 304 312 322 321 323 321 326 325 325 325 318 326 326 326 327 328 329 329 330 330 330 331 329 329 330 331 331 334 333 332 330 330 329 330 333 333 333
303 303 303 303 303 303 303 303 303 306 307 309 322 321 319 320 322 324 325 325 324 325 326 327 326 326 328 329 330 330 330 330 328 328 331 331 331 332 332 332 331 331 331 330 331 331 332
304 303 303 303 302 302 302 303 302 305 308 311 323 323 326 324 323 327 327 327 326 325 327 326 327 326 327 328 329 331 329 329 327 327 331 327 328 330 331 332 330 332 331 330 329 331 331
303 304 303 303 302 302 302 302 302 304 306 313 323 324 326 329 326 326 325 326 326 326 325 326 327 326 327 328 328 329 329 329 326 327 325 326 330 330 329 327 327 327 326 325 326 328 329
302 301 303 303 302 302 302 302 302 305 306 318 320 325 326 322 326 329 322 325 325 324 327 327 326 327 326 328 329 329 328 328 328 328 327 328 330 329 327 325 325 325 324 324 324 325 325
303 301 303 303 302 302 302 302 302 304 309 315 317 317 318 318 323 323 323 326 326 326 326 326 327 328 327 327 327 328 327 327 328 329 329 329 330 330 327 324 324 325 325 324 324 324 324
302 301 301 303 302 302 302 302 302 302 305 311 315 316 319 319 318 321 321 323 326 326 327 326 325 326 327 326 326 325 325 325 326 327 327 328 329 329 327 325 327 326 327 327 327 327 329
302 302 301 302 302 302 302 302 301 302 303 308 311 315 319 319 318 319 320 323 323 324 326 326 326 325 326 327 327 327 327 327 326 325 326 326 327 325 328 329 327 325 329 330 331 333 331
303 303 303 301 302 302 302 302 301 301 302 306 311 313 314 317 317 318 319 321 322 322 323 324 324 324 325 326 325 327 327 327 328 328 326 326 327 328 328 329 330 332 336 333 332 330 336
303 303 303 302 301 301 301 302 302 301 301 303 309 312 313 315 315 316 319 322 323 321 320 321 323 324 324 324 324 324 325 325 326 327 330 329 328 328 327 327 326 325 335 332 331 336 335
302 302 303 303 301 301 301 301 302 301 301 303 309 310 312 315 315 315 316 318 318 320 321 325 323 323 324 325 322 322 324 324 325 326 327 329 330 330 330 331 330 334 333 334 336 334 332
302 302 303 303 302 301 301 301 302 302 301 301 307 311 311 312 314 312 313 313 314 315 320 323 325 325 326 323 322 323 322 323 326 327 327 328 327 327 329 336 335 332 332 329 330 332 332
Wind_Speed
18 18 20 21 22 23 24 25 26 28 27 29 31 31 33 35 28 19 21 12 11 8 5 3 7 10 4 9 6 3 6 15 17 15 16 13 11 12 12 6 4 11 8 6 8 8 6
17 18 19 21 22 24 25 26 26 28 29 30 31 32 34 35 30 19 19 11 10 8 4 4 9 12 6 7 6 8 13 17 15 15 15 12 9 8 12 7 8 11 8 9 4 4 1
17 18 19 21 22 24 25 27 28 29 29 31 32 33 34 35 32 18 18 9 8 6 5 7 9 4 10 8 8 11 14 13 11 11 9 11 11 9 3 10 3 9 12 8 5 2 4
20 20 20 21 23 24 26 28 28 30 30 31 32 33 34 35 32 17 17 6 5 4 4 4 2 6 4 6 8 11 8 7 9 8 10 6 9 12 8 6 11 12 12 11 9 5 5
19 20 22 23 23 24 26 28 28 30 32 32 33 33 34 35 30 15 17 3 2 1 1 2 4 9 7 7 10 12 10 9 8 7 7 3 10 14 6 12 12 8 8 1 8 1 4
19 19 21 23 23 24 25 28 28 30 32 33 33 34 34 35 26 14 14 3 4 3 4 6 11 8 11 11 9 10 11 5 7 7 8 10 8 10 12 12 7 5 5 7 4 6 5
20 20 21 22 23 24 25 27 28 30 31 32 33 34 34 34 20 15 10 4 5 6 12 9 6 3 11 10 8 10 12 10 8 7 12 11 11 13 3 8 7 5 6 7 2 2 9
19 20 21 22 23 24 26 27 27 30 31 32 32 33 33 34 15 9 11 5 7 6 7 5 4 5 4 4 9 11 14 11 8 13 4 7 13 10 3 5 6 7 9 7 3 2 8
20 21 22 22 23 24 25 27 29 30 31 32 32 33 32 31 8 6 6 7 7 6 7 8 6 9 12 11 9 13 15 13 10 7 10 14 14 3 7 6 9 9 8 8 10 6 14
20 21 22 23 24 25 26 27 29 30 32 31 32 32 31 30 6 9 0 9 9 3 6 11 10 7 8 10 7 15 16 5 5 6 3 9 8 4 6 2 8 7 5 6 11 12 12
20 21 23 24 25 26 27 27 29 31 31 31 31 31 29 18 12 6 8 11 6 5 5 13 11 12 14 12 14 11 11 8 12 6 9 4 8 7 8 4 6 11 10 11 12 14 15
19 21 22 24 26 27 27 27 28 30 31 31 29 29 27 5 7 7 11 10 6 7 3 8 8 12 14 13 10 11 10 10 6 6 8 3 1 5 5 1 6 8 12 15 16 13 13
19 20 22 24 26 28 29 28 28 30 31 32 29 26 19 9 7 11 12 7 7 8 4 9 12 12 17 11 12 11 15 14 11 9 14 9 11 5 7 10 10 11 13 10 7 11 1
19 21 22 24 26 28 30 30 29 31 31 32 29 20 9 10 10 10 12 8 9 5 2 3 2 9 12 9 10 11 13 14 11 9 11 8 12 11 5 5 9 10 8 8 10 10 10
18 20 21 24 26 28 30 31 30 31 30 33 27 11 8 6 6 8 8 9 11 3 5 5 8 12 14 5 9 11 14 14 7 8 11 8 8 8 3 2 4 2 9 9 11 17 10
19 19 21 23 25 27 29 32 32 31 30 22 18 13 11 4 5 10 8 14 7 5 6 7 13 11 13 13 12 11 12 5 4 6 7 5 9 13 10 6 10 10 10 10 10 5 10
18 19 21 23 26 28 30 32 33 33 32 15 8 5 8 3 6 7 10 5 3 4 7 9 11 10 12 8 7 13 7 8 3 6 9 12 7 6 7 13 13 8 10 6 7 7 9
17 19 20 22 24 26 29 30 32 32 37 17 8 5 5 4 8 7 9 4 3 9 8 10 8 11 8 8 9 13 6 3 4 10 9 1 6 10 14 10 3 11 15 14 8 11 8
18 19 20 22 23 26 28 29 30 27 29 14 5 8 3 8 7 9 7 8 8 7 9 7 9 10 7 7 8 7 4 10 3 8 7 2 8 11 15 16 12 6 10 9 9 10 14
16 18 19 21 23 24 26 28 29 23 23 9 5 4 5 6 8 10 9 8 10 5 9 7 9 1 9 12 6 5 7 8 4 2 8 4 11 13 13 18 14 8 10 11 14 11 14
15 15 16 17 21 23 23 26 28 21 16 6 4 1 5 3 3 7 5 8 9 9 10 6 9 12 12 12 12 11 11 11 8 8 6 6 12 13 15 16 17 18 19 20 19 18 18
16 14 14 16 17 20 20 23 27 21 14 6 5 4 4 10 6 9 5 10 11 10 2 10 11 11 9 11 11 11 12 9 10 13 8 10 9 10 16 18 18 21 22 21 21 20 21
16 12 12 13 13 15 18 21 24 21 14 6 8 9 5 3 8 9 10 10 7 8 3 10 6 7 10 7 6 9 7 8 5 7 8 9 9 11 16 14 15 13 18 19 16 16 15
14 12 12 11 11 12 13 16 17 19 12 9 9 10 6 10 8 8 6 6 8 7 10 3 3 11 6 7 5 9 14 14 13 12 12 12 11 10 13 14 17 18 4 7 6 9 8
13 12 11 11 11 10 10 12 13 15 12 9 5 6 5 9 9 6 8 9 10 6 9 14 11 6 6 9 9 13 13 15 18 16 16 14 11 13 13 13 14 17 15 8 6 7 11
14 12 11 10 9 9 9 9 10 12 14 9 5 4 5 6 3 9 6 9 10 10 12 13 12 7 9 10 12 17 14 15 16 21 10 10 10 11 13 15 14 4 6 6 3 10 11
14 13 12 10 9 8 9 8 8 11 11 8 6 3 6 8 11 6 7 8 6 8 9 10 4 11 9 11 13 15 16 18 18 15 11 11 10 13 12 12 14 9 10 4 8 2 5
15 14 12 11 11 9 8 7 7 7 9 8 8 5 10 6 12 12 12 10 8 8 9 9 4 7 10 12 13 14 15 15 16 18 15 14 13 13 14 15 18 9 5 7 6 5 8
15 14 12 12 11 11 9 7 7 6 6 8 8 3 3 10 12 17 17 16 18 20 11 8 13 10 4 7 10 11 13 14 15 14 15 15 15 11 10 4 1 3 2 3 5 6 7
Wind_Direction
14 12 10 9 7 7 5 4 4 2 3 1 0 0 359 360 359 354 349 349 351 351 332 259 211 190 175 213 69 18 156 164 166 197 209 211 225 243 264 292 301 254 285 322 296 300 324
9 8 6 5 3 3 2 1 0 360 359 358 358 359 359 358 357 355 358 358 360 5 22 123 156 170 243 236 114 118 136 151 174 199 205 224 245 262 293 293 284 336 302 292 270 115 150
3 2 0 359 358 358 359 360 358 357 357 355 355 356 357 356 354 351 356 352 3 23 72 123 150 175 254 73 144 141 146 168 183 211 209 226 257 236 319 251 289 277 264 196 193 82 128
3 0 357 354 355 356 357 357 357 356 355 354 353 353 354 354 352 346 350 339 5 40 84 115 186 243 56 131 157 168 185 180 184 220 261 208 244 270 276 314 251 243 226 193 128 281 117
357 357 355 356 355 358 357 356 356 355 354 353 352 351 352 352 351 345 347 337 14 34 188 278 241 229 136 157 189 190 195 181 187 200 205 218 246 248 210 237 227 204 248 352 129 144 307
350 353 353 354 353 353 353 354 355 354 353 352 350 350 350 351 350 342 348 263 267 247 266 250 266 256 158 199 154 178 194 218 194 166 180 220 227 231 220 235 325 45 315 155 270 137 232
349 352 351 349 350 350 350 352 352 352 350 350 348 348 347 349 347 344 333 257 210 196 216 307 143 339 132 136 160 199 186 208 209 220 234 198 233 223 63 13 345 325 288 284 161 77 278
357 355 354 352 353 352 351 351 350 349 349 347 346 345 346 346 341 346 315 6 35 337 281 191 222 249 186 213 190 178 184 209 204 233 196 201 234 50 312 291 268 256 265 240 197 120 276
360 356 353 350 349 348 348 347 347 346 346 345 345 345 343 343 329 312 18 22 335 318 252 149 191 193 178 202 205 169 197 223 226 228 219 266 69 94 242 201 247 216 303 15 315 309 253
1 358 355 352 349 345 344 344 343 342 343 342 342 342 342 338 288 346 95 344 326 299 264 144 178 161 183 224 212 158 208 242 219 283 199 251 100 257 254 279 304 306 69 294 284 288 293
2 359 357 355 352 349 345 342 341 341 338 338 337 339 336 329 307 319 332 326 314 237 266 151 132 136 164 215 128 190 196 216 259 180 244 117 192 215 253 31 322 326 335 297 286 278 275
1 359 357 355 353 351 347 344 342 339 337 335 332 336 331 327 253 312 319 313 259 233 232 151 147 184 185 210 190 141 190 235 303 230 234 326 349 260 336 217 272 312 278 262 248 253 246
360 358 357 355 353 352 350 347 344 339 337 333 328 330 316 291 322 319 317 262 238 251 138 147 188 182 201 179 177 190 198 202 221 212 215 179 210 138 260 245 195 247 294 290 240 214 268
357 357 356 355 354 352 350 349 347 340 338 332 325 321 294 254 288 301 295 257 257 326 151 45 245 204 224 173 220 204 226 226 218 280 283 236 182 184 158 291 336 307 317 292 300 299 320
355 355 355 354 353 352 350 349 349 342 341 335 328 307 251 219 272 285 269 240 242 305 27 251 186 235 212 188 269 214 225 235 217 209 266 309 224 133 172 229 278 77 259 17 298 259 250
352 353 354 355 355 353 351 349 352 344 343 342 326 288 253 207 264 261 253 258 308 323 306 259 255 213 236 194 199 216 198 229 202 265 271 326 280 195 149 240 213 273 338 274 226 287 282
348 350 352 353 354 355 353 351 354 348 345 349 286 263 116 230 246 241 244 260 228 161 279 252 255 268 252 265 226 252 222 125 241 182 276 284 223 262 134 224 250 188 234 208 301 299 296
342 345 347 348 350 352 353 351 353 358 351 1 289 252 109 241 240 229 257 226 3 255 213 257 268 289 262 243 250 253 252 240 101 285 245 147 283 260 243 115 305 273 279 287 279 294 279
333 339 344 347 348 348 350 351 352 1 11 334 294 287 206 239 251 229 205 258 243 239 237 231 239 241 241 260 253 278 248 78 169 248 4 310 244 260 240 239 182 242 270 239 263 276 266
321 327 333 339 343 344 347 348 348 354 358 340 279 269 179 214 270 283 301 231 208 213 277 267 275 254 244 245 209 249 244 145 225 310 38 316 272 271 284 316 318 272 234 251 268 271 282
311 315 319 327 338 342 345 348 346 349 349 321 245 12 6 272 180 300 290 297 242 209 221 222 233 243 232 239 235 220 230 152 197 132 238 251 269 279 283 290 289 286 282 279 271 267 269
306 306 317 321 330 340 346 347 348 352 342 253 309 339 1 283 278 270 208 239 248 255 263 229 238 260 239 256 248 246 244 236 235 165 232 237 262 280 279 276 272 272 272 271 269 269 273
299 297 310 313 320 333 343 347 351 357 13 315 8 278 266 291 243 245 252 232 238 276 251 278 324 308 238 304 319 334 312 302 279 278 257 255 276 280 276 286 281 277 265 261 256 263 279
293 291 298 313 314 322 332 345 349 353 8 332 344 293 274 261 247 262 285 267 270 254 276 286 213 264 25 318 275 262 268 261 242 248 242 254 251 267 273 273 265 259 17 300 310 303 286
289 291 290 300 307 305 318 337 347 345 344 332 316 306 297 273 287 273 264 258 269 242 247 260 260 304 341 291 262 247 245 244 251 246 237 241 260 260 255 254 260 267 204 212 273 292 326
282 283 288 285 305 307 305 310 338 343 344 326 302 293 281 293 275 342 298 290 278 256 244 240 241 267 275 265 242 241 248 251 244 229 203 258 241 263 262 265 265 52 90 59 10 273 55
275 276 280 278 277 296 304 297 312 342 342 325 296 263 269 279 276 290 274 328 307 276 274 295 261 239 211 250 245 247 247 234 251 244 171 213 229 243 241 256 266 283 124 153 262 54 355
268 269 271 269 265 279 296 286 283 318 339 336 299 271 281 283 297 291 292 291 271 251 269 32 266 219 261 230 248 252 255 256 254 244 243 232 224 229 234 250 257 107 172 253 43 320 305
263 260 261 255 263 266 283 277 267 273 316 330 271 103 283 255 289 306 286 277 271 276 293 286 287 304 317 262 239 254 258 256 261 251 208 241 259 281 293 28 36 37 20 353 335 321 305